EW1036 Weather Reports


Display with metric or nautical units.
time (UTC)temp
F
wind
direction
speed
MPH
gust
MPH
rain 1hr
in
rain 24hr
in
rain mn
in
humidity
%
barometer
mb
20260507093532 69 0 0.0 0.0 0.00 0.18 0.18 93 1011.8
20260507093047 69 0 0.0 0.0 0.00 0.18 0.18 93 1011.9
20260507092534 69 0 0.0 0.0 0.00 0.18 0.18 93 1011.8
20260507092033 69 0 0.0 0.0 0.00 0.18 0.18 93 1011.8
20260507091608 69 0 0.0 0.0 0.00 0.18 0.18 92 1011.8
20260507091034 69 0 0.0 0.0 0.00 0.18 0.18 92 1011.7
20260507090532 69 0 0.0 0.0 0.00 0.18 0.18 93 1011.6
20260507090041 69 0 0.0 0.0 0.00 0.18 0.18 93 1011.5
20260507085532 69 0 0.0 0.0 0.00 0.18 0.18 93 1011.5
20260507085029 69 0 0.0 0.0 0.01 0.18 0.18 93 1011.3
20260507084543 69 0 0.0 0.0 0.01 0.18 0.18 93 1011.2
20260507084028 69 0 0.0 0.0 0.01 0.18 0.18 93 1011.0
20260507083529 69 0 0.0 0.0 0.01 0.18 0.18 92 1011.0
20260507083041 69 0 0.0 0.0 0.02 0.18 0.18 92 1011.3
20260507082531 69 0 0.0 0.0 0.04 0.18 0.18 92 1011.2
20260507082028 69 0 0.0 0.0 0.05 0.18 0.18 92 1011.2
20260507081543 69 0 0.0 0.0 0.06 0.18 0.18 92 1011.5
20260507081032 69 0 0.0 0.0 0.06 0.18 0.18 92 1011.5
20260507080532 69 0 0.0 0.0 0.07 0.18 0.18 92 1011.6
20260507080040 69 0 0.0 0.0 0.08 0.18 0.18 91 1011.6
20260507075532 69 0 0.0 0.0 0.09 0.18 0.18 91 1011.6
20260507075029 69 0 0.0 0.0 0.10 0.17 0.17 91 1011.6
20260507074546 69 0 0.0 0.0 0.13 0.17 0.17 91 1012.0
20260507074028 70 0 0.0 0.0 0.13 0.17 0.17 91 1012.1
20260507073529 70 0 0.0 0.0 0.14 0.17 0.17 90 1012.4
20260507073043 70 0 0.0 0.0 0.13 0.16 0.16 90 1012.6
20260507072529 70 0 0.0 0.0 0.11 0.13 0.13 90 1012.7
20260507072031 70 0 0.0 0.0 0.11 0.13 0.13 90 1012.8
20260507071543 70 0 0.0 0.0 0.12 0.12 0.12 90 1012.7
20260507071029 70 0 0.0 0.0 0.12 0.12 0.12 90 1012.8
20260507070532 70 0 0.0 0.0 0.11 0.11 0.11 89 1012.9
20260507070056 70 0 0.0 1.0 0.10 0.10 0.10 89 1013.0
20260507065528 70 0 0.0 1.0 0.09 0.09 0.09 89 1012.9
20260507065032 71 0 0.0 0.0 0.06 0.06 0.06 88 1013.1
20260507064548 71 0 0.0 0.0 0.04 0.04 0.04 88 1013.1
20260507064033 71 0 0.0 0.0 0.04 0.04 0.04 88 1013.3
20260507063532 71 0 0.0 0.0 0.03 0.03 0.03 88 1013.3
20260507063051 71 0 0.0 1.0 0.03 0.03 0.03 88 1013.2
20260507062529 71 0 0.0 1.0 0.02 0.02 0.02 88 1013.1
20260507062031 71 0 0.0 0.0 0.02 0.02 0.02 87 1013.2
20260507061545 71 0 0.0 0.0 0.00 0.00 0.00 86 1013.1
20260507061031 71 0 0.0 0.0 0.00 0.00 0.00 86 1012.9
20260507060531 71 0 0.0 0.0 0.00 0.00 0.00 86 1012.8
20260507060054 71 0 0.0 0.0 0.00 0.00 0.00 85 1012.6
20260507055533 71 0 0.0 0.0 0.00 0.00 0.00 85 1012.6
20260507055034 71 0 0.0 0.0 0.00 0.00 0.00 85 1012.7
20260507054547 71 0 0.0 0.0 0.00 0.00 0.00 85 1012.5
20260507054033 71 0 0.0 0.0 0.00 0.00 0.00 85 1012.5
20260507053534 71 0 0.0 1.0 0.00 0.00 0.00 85 1012.5
20260507053050 71 0 0.0 1.0 0.00 0.00 0.00 85 1012.7
20260507052532 71 0 0.0 1.0 0.00 0.00 0.00 84 1012.8
20260507052033 71 0 0.0 0.0 0.00 0.00 0.00 84 1012.7
20260507051549 71 0 0.0 0.0 0.00 0.00 0.00 84 1012.7
20260507051032 71 0 0.0 0.0 0.00 0.00 0.00 84 1012.7
20260507050534 71 0 0.0 0.0 0.00 0.00 0.00 84 1012.7
20260507050053 71 0 0.0 0.0 0.00 0.00 0.00 84 1012.7
20260507045534 71 0 0.0 0.0 0.00 0.00 0.00 84 1012.8
20260507045033 71 0 0.0 0.0 0.00 0.00 0.00 84 1012.7
20260507044547 71 0 0.0 0.0 0.00 0.00 0.00 84 1012.7
20260507044032 71 0 0.0 0.0 0.00 0.00 0.00 84 1012.8
20260507043532 71 0 0.0 0.0 0.00 0.00 0.00 83 1012.9
20260507043042 71 0 0.0 0.0 0.00 0.00 0.00 83 1012.9
20260507042533 71 0 0.0 0.0 0.00 0.00 0.00 83 1013.0
20260507042034 71 0 0.0 0.0 0.00 0.00 0.00 83 1013.0
20260507041542 71 0 0.0 0.0 0.00 0.00 0.00 83 1013.1
20260507041032 71 0 0.0 1.0 0.00 0.00 0.00 83 1013.0
20260507040534 71 0 0.0 2.0 0.00 0.00 0.00 83 1012.9
20260507040044 71 0 0.0 2.0 0.00 0.00 0.00 83 1012.8
20260507035532 71 0 0.0 1.0 0.00 0.00 0.00 83 1012.9
20260507035032 71 0 0.0 0.0 0.00 0.00 0.00 83 1012.9
20260507034553 71 0 0.0 1.0 0.00 0.00 0.00 83 1012.7
20260507034033 71 0 0.0 1.0 0.00 0.00 0.00 82 1013.0
20260507033533 71 0 0.0 1.0 0.00 0.00 0.00 82 1013.0
20260507033047 71 0 0.0 1.0 0.00 0.00 0.00 82 1013.0
20260507032534 71 0 0.0 1.0 0.00 0.00 0.00 82 1013.0
20260507032032 71 0 0.0 1.0 0.00 0.00 0.00 81 1013.0
20260507031548 71 0 0.0 1.0 0.00 0.00 0.00 81 1013.0
20260507031033 71 0 0.0 1.0 0.00 0.00 0.00 81 1013.2
20260507030533 71 0 0.0 1.0 0.00 0.00 0.00 81 1013.1
20260507030042 71 0 0.0 2.0 0.00 0.00 0.00 81 1013.1
20260507025532 72 0 0.0 2.0 0.00 0.00 0.00 80 1013.1
20260507025033 72 0 0.0 1.0 0.00 0.00 0.00 80 1013.2
20260507024551 72 0 0.0 1.0 0.00 0.00 0.00 80 1013.4
20260507024033 72 0 0.0 1.0 0.00 0.00 0.00 80 1013.4
20260507023534 72 0 0.0 1.0 0.00 0.00 0.00 79 1013.3
20260507023042 72 0 0.0 1.0 0.00 0.00 0.00 79 1013.3
20260507022534 72 0 0.0 1.0 0.00 0.00 0.00 79 1013.3
20260507022033 72 0 0.0 0.0 0.00 0.00 0.00 79 1013.3
20260507021548 72 0 0.0 1.0 0.00 0.00 0.00 78 1013.6
20260507021032 72 0 0.0 1.0 0.00 0.00 0.00 78 1013.6
20260507020534 72 0 0.0 1.0 0.00 0.00 0.00 78 1013.6
20260507020048 72 0 0.0 1.0 0.00 0.00 0.00 78 1013.6
20260507015532 72 0 0.0 1.0 0.00 0.00 0.00 78 1013.7
20260507015032 72 0 0.0 1.0 0.00 0.00 0.00 78 1013.6
20260507014549 72 0 0.0 5.0 0.00 0.00 0.00 77 1013.6
20260507014032 72 0 0.0 5.0 0.00 0.00 0.00 77 1013.6
20260507013532 72 0 0.0 3.0 0.00 0.00 0.00 77 1013.6
20260507013039 72 82 0.0 3.0 0.00 0.00 0.00 77 1013.7
20260507012534 72 0 0.0 2.0 0.00 0.00 0.00 77 1013.6
20260507012035 72 0 0.0 3.0 0.00 0.00 0.00 76 1013.5
20260507011546 72 0 0.0 3.0 0.00 0.00 0.00 76 1013.4
20260507011032 73 0 0.0 3.0 0.00 0.00 0.00 75 1013.3
20260507010534 73 0 0.0 3.0 0.00 0.00 0.00 75 1013.2
20260507010055 73 0 0.0 3.0 0.00 0.00 0.00 75 1013.2
20260507005534 73 0 0.0 2.0 0.00 0.00 0.00 74 1013.3
20260507005033 73 127 0.0 3.0 0.00 0.00 0.00 74 1013.3
20260507004540 73 0 0.0 3.0 0.00 0.00 0.00 74 1013.2
20260507004033 73 0 0.0 3.0 0.00 0.00 0.00 73 1013.3
20260507003533 73 134 0.0 3.0 0.00 0.00 0.00 73 1013.2
20260507003041 73 153 0.0 3.0 0.00 0.00 0.00 72 1013.2
20260507002532 74 0 0.0 3.0 0.00 0.00 0.00 72 1013.2
20260507002032 74 0 0.0 3.0 0.00 0.00 0.00 71 1013.2
20260507001551 74 139 0.0 3.0 0.00 0.00 0.00 71 1013.1
20260507001034 74 0 0.0 3.0 0.00 0.00 0.00 70 1013.1
20260507000533 74 0 0.0 3.0 0.00 0.00 0.00 69 1013.2
20260507000048 74 128 0.0 3.0 0.00 0.00 0.00 68 1013.1
20260506235533 74 126 0.0 4.0 0.00 0.00 0.00 68 1013.2
20260506235032 74 0 0.0 4.0 0.00 0.00 0.00 67 1013.2
20260506234542 75 69 0.0 3.0 0.00 0.00 0.00 67 1013.2
20260506234032 75 0 0.0 3.0 0.00 0.00 0.00 67 1013.1
20260506233551 75 142 0.0 3.0 0.00 0.00 0.00 66 1013.0
20260506233048 75 142 0.0 3.0 0.00 0.00 0.00 65 1013.1
20260506232532 75 129 1.0 3.0 0.00 0.00 0.00 65 1013.0
20260506232032 75 132 0.0 5.0 0.00 0.00 0.00 64 1012.9
20260506231546 75 151 1.0 5.0 0.00 0.00 0.00 63 1012.9
20260506231032 75 145 1.0 3.0 0.00 0.00 0.00 63 1012.9
20260506230533 75 0 0.0 3.0 0.00 0.00 0.00 62 1012.8
20260506230054 76 0 1.0 3.0 0.00 0.00 0.00 62 1013.1
20260506225533 76 0 1.0 3.0 0.00 0.00 0.00 61 1013.1
20260506225035 76 142 1.0 3.0 0.00 0.00 0.00 60 1013.1
20260506224542 76 140 0.0 4.0 0.00 0.00 0.00 59 1013.1
20260506224033 76 171 1.0 4.0 0.00 0.00 0.00 58 1013.1
20260506223534 76 144 1.0 4.0 0.00 0.00 0.00 57 1013.0
20260506223045 76 146 1.0 5.0 0.00 0.00 0.00 56 1013.2
20260506222533 77 148 1.0 5.0 0.00 0.00 0.00 54 1013.2
20260506222035 77 213 1.0 3.0 0.00 0.00 0.00 54 1013.2
20260506221545 77 0 1.0 5.0 0.00 0.00 0.00 52 1013.2
20260506221032 77 158 2.0 5.0 0.00 0.00 0.00 53 1012.9
20260506220532 77 123 1.0 4.0 0.00 0.00 0.00 53 1013.1
20260506220049 77 0 1.0 5.0 0.00 0.00 0.00 53 1013.0
20260506215533 77 103 1.0 5.0 0.00 0.00 0.00 55 1012.8
20260506215032 78 123 1.0 5.0 0.00 0.00 0.00 55 1012.7
20260506214543 78 143 1.0 4.0 0.00 0.00 0.00 55 1012.6
20260506214033 78 138 1.0 4.0 0.00 0.00 0.00 55 1012.7
20260506213533 78 136 1.0 3.0 0.00 0.00 0.00 55 1012.7
20260506213043 78 0 1.0 5.0 0.00 0.00 0.00 55 1012.3
20260506212534 78 123 1.0 6.0 0.00 0.00 0.00 56 1012.4
20260506212034 78 139 2.0 6.0 0.00 0.00 0.00 56 1012.4
20260506211548 78 138 1.0 5.0 0.00 0.00 0.00 56 1013.1
20260506211034 78 132 1.0 5.0 0.00 0.00 0.00 58 1013.4
20260506210535 78 126 1.0 5.0 0.00 0.00 0.00 59 1013.7
20260506210042 78 0 1.0 5.0 0.00 0.00 0.00 60 1013.6
20260506205534 78 0 1.0 5.0 0.00 0.00 0.00 62 1013.7
20260506205034 78 157 0.0 5.0 0.00 0.00 0.00 62 1013.7
20260506204546 78 155 1.0 5.0 0.00 0.00 0.00 61 1013.5
20260506204033 78 144 2.0 5.0 0.00 0.00 0.00 60 1013.5
20260506203535 79 144 1.0 6.0 0.00 0.00 0.00 62 1013.6
20260506203044 79 155 2.0 6.0 0.00 0.00 0.00 60 1013.8
20260506202535 79 117 1.0 5.0 0.00 0.00 0.00 61 1013.8
20260506202035 79 155 1.0 5.0 0.00 0.00 0.00 61 1013.8
20260506201550 79 159 1.0 7.0 0.00 0.00 0.00 63 1013.7
20260506201035 80 148 1.0 7.0 0.00 0.00 0.00 61 1013.7
20260506200533 79 148 2.0 7.0 0.00 0.00 0.00 60 1013.7
20260506200041 79 143 2.0 6.0 0.00 0.00 0.00 61 1013.9
20260506195533 80 149 2.0 6.0 0.00 0.00 0.00 63 1013.9
20260506195033 80 0 1.0 5.0 0.00 0.00 0.00 63 1014.0
20260506194540 80 0 1.0 5.0 0.00 0.00 0.00 62 1014.0
20260506194034 80 150 1.0 5.0 0.00 0.00 0.00 62 1013.9
20260506193534 79 134 1.0 6.0 0.00 0.00 0.00 63 1013.9
20260506193047 79 159 1.0 6.0 0.00 0.00 0.00 63 1014.0
20260506192534 79 128 1.0 6.0 0.00 0.00 0.00 63 1014.0
20260506192034 79 177 2.0 6.0 0.00 0.00 0.00 63 1014.2
20260506191545 80 207 2.0 6.0 0.00 0.00 0.00 61 1014.3
20260506191034 80 0 0.0 4.0 0.00 0.00 0.00 63 1014.3
20260506190533 79 160 1.0 4.0 0.00 0.00 0.00 64 1014.7
20260506190043 80 166 1.0 4.0 0.00 0.00 0.00 60 1014.6
20260506185533 80 165 1.0 4.0 0.00 0.00 0.00 61 1014.6
20260506185033 80 152 0.0 4.0 0.00 0.00 0.00 64 1014.6
20260506184549 81 151 0.0 4.0 0.00 0.00 0.00 62 1014.7
20260506184035 81 130 1.0 5.0 0.00 0.00 0.00 61 1014.6
20260506183532 81 157 0.0 5.0 0.00 0.00 0.00 62 1014.6
20260506183044 81 126 1.0 6.0 0.00 0.00 0.00 59 1014.7
20260506182535 79 154 1.0 6.0 0.00 0.00 0.00 61 1014.7
20260506182034 78 163 1.0 3.0 0.00 0.00 0.00 63 1014.7
20260506181549 78 0 0.0 3.0 0.00 0.00 0.00 64 1014.6
20260506181032 78 0 0.0 3.0 0.00 0.00 0.00 62 1014.6
20260506180534 79 0 1.0 5.0 0.00 0.00 0.00 60 1014.6
20260506180045 79 156 1.0 5.0 0.00 0.00 0.00 61 1014.7
20260506175535 79 140 1.0 6.0 0.00 0.00 0.00 61 1014.7
20260506175035 79 148 2.0 6.0 0.00 0.00 0.00 62 1014.8
20260506174554 79 158 2.0 6.0 0.00 0.00 0.00 62 1015.0
20260506174035 80 167 1.0 5.0 0.00 0.00 0.00 63 1015.1
20260506173533 80 178 2.0 5.0 0.00 0.00 0.00 62 1015.3
20260506173054 80 168 2.0 5.0 0.00 0.00 0.00 62 1015.2
20260506172536 81 147 1.0 5.0 0.00 0.00 0.00 62 1015.3
20260506172034 80 0 2.0 5.0 0.00 0.00 0.00 62 1015.3
20260506171542 80 139 1.0 5.0 0.00 0.00 0.00 63 1015.4
20260506171035 80 141 1.0 5.0 0.00 0.00 0.00 62 1015.4
20260506170532 80 0 1.0 4.0 0.00 0.00 0.00 63 1015.5
20260506170046 80 144 1.0 4.0 0.00 0.00 0.00 63 1015.5
20260506165532 80 145 1.0 4.0 0.00 0.00 0.00 63 1015.5
20260506165032 80 148 1.0 5.0 0.00 0.00 0.00 64 1015.7
20260506164542 80 163 1.0 5.0 0.00 0.00 0.00 62 1015.7
20260506164033 80 0 1.0 5.0 0.00 0.00 0.00 62 1015.8
20260506163532 79 0 1.0 5.0 0.00 0.00 0.00 62 1015.9
20260506163048 80 223 1.0 5.0 0.00 0.00 0.00 64 1015.9
20260506162531 80 0 1.0 5.0 0.00 0.00 0.00 63 1016.0
20260506162031 80 80 1.0 4.0 0.00 0.00 0.00 63 1016.0
20260506161546 79 0 1.0 4.0 0.00 0.00 0.00 64 1016.1
20260506161034 79 154 1.0 3.0 0.00 0.00 0.00 65 1016.2
20260506160531 79 0 0.0 5.0 0.00 0.00 0.00 68 1016.2
20260506160047 78 174 1.0 5.0 0.00 0.00 0.00 67 1016.2
20260506155532 78 162 1.0 4.0 0.00 0.00 0.00 67 1016.2
20260506155032 78 0 1.0 4.0 0.00 0.00 0.00 69 1016.1
20260506154541 78 126 0.0 4.0 0.00 0.00 0.00 69 1016.2
20260506154032 78 0 0.0 3.0 0.00 0.00 0.00 69 1016.2
20260506153531 78 0 0.0 4.0 0.00 0.00 0.00 69 1016.3
20260506153046 78 0 0.0 4.0 0.00 0.00 0.00 69 1016.2
20260506152533 78 116 1.0 4.0 0.00 0.00 0.00 69 1016.3
20260506152035 77 0 0.0 7.0 0.00 0.00 0.00 71 1016.3
20260506151545 77 0 1.0 7.0 0.00 0.00 0.00 68 1016.3
20260506151033 77 155 2.0 5.0 0.00 0.00 0.00 68 1016.4
20260506150531 77 170 0.0 4.0 0.00 0.00 0.00 71 1016.5
20260506150058 76 0 0.0 4.0 0.00 0.00 0.00 71 1016.4
20260506145534 76 153 0.0 4.0 0.00 0.00 0.00 71 1016.4
20260506145035 76 128 0.0 3.0 0.00 0.00 0.00 71 1016.5
20260506144558 76 0 1.0 3.0 0.00 0.00 0.00 71 1016.4
20260506144032 76 0 0.0 3.0 0.00 0.00 0.00 71 1016.4
20260506143532 76 0 0.0 4.0 0.00 0.00 0.00 72 1016.6
20260506143053 75 115 1.0 4.0 0.00 0.00 0.00 72 1016.6
20260506142531 75 140 0.0 5.0 0.00 0.00 0.00 74 1016.6
20260506142031 75 0 0.0 5.0 0.00 0.00 0.00 74 1016.5
20260506141542 74 126 1.0 5.0 0.00 0.00 0.00 74 1016.4
20260506141035 74 144 2.0 5.0 0.00 0.00 0.00 74 1016.4
20260506140532 73 139 0.0 4.0 0.00 0.00 0.00 76 1016.5
20260506140057 73 153 1.0 5.0 0.00 0.00 0.00 76 1016.4
20260506135531 72 0 0.0 5.0 0.00 0.00 0.00 78 1016.4
20260506135034 72 155 0.0 2.0 0.00 0.00 0.00 80 1016.4
20260506134545 71 0 0.0 7.0 0.00 0.00 0.00 81 1016.4
20260506134037 71 159 1.0 7.0 0.00 0.00 0.00 82 1016.3
20260506133535 70 0 0.0 0.0 0.00 0.00 0.00 84 1016.2
20260506133101 70 0 0.0 0.0 0.00 0.00 0.00 86 1016.3
20260506132534 69 0 0.0 0.0 0.00 0.00 0.00 87 1016.3
20260506132034 69 0 0.0 0.0 0.00 0.00 0.00 90 1016.4
20260506131546 68 0 0.0 0.0 0.00 0.00 0.00 91 1016.5
20260506131032 68 0 0.0 0.0 0.00 0.00 0.00 92 1016.3
20260506130535 68 0 0.0 0.0 0.00 0.00 0.00 93 1016.3
20260506130112 67 0 0.0 0.0 0.00 0.00 0.00 93 1016.3
20260506125531 67 0 0.0 0.0 0.00 0.00 0.00 94 1016.2
20260506125034 67 0 0.0 0.0 0.00 0.00 0.00 94 1016.1
20260506124548 67 0 0.0 0.0 0.00 0.00 0.00 95 1016.1
20260506124036 66 0 0.0 0.0 0.00 0.00 0.00 95 1016.1
20260506123534 66 0 0.0 0.0 0.00 0.00 0.00 95 1016.1
20260506123049 66 0 0.0 0.0 0.00 0.00 0.00 95 1016.1
20260506122534 66 0 0.0 0.0 0.00 0.00 0.00 95 1016.1
20260506122035 65 0 0.0 0.0 0.00 0.00 0.00 95 1016.0
20260506121553 65 0 0.0 0.0 0.00 0.00 0.00 95 1016.1
20260506121034 65 0 0.0 0.0 0.00 0.00 0.00 95 1016.0
20260506120533 64 0 0.0 0.0 0.00 0.00 0.00 95 1016.0
20260506120057 64 0 0.0 0.0 0.00 0.00 0.00 95 1016.1
20260506115533 64 0 0.0 0.0 0.00 0.00 0.00 95 1016.4
20260506115036 63 0 0.0 0.0 0.00 0.00 0.00 95 1016.5
20260506114552 63 0 0.0 0.0 0.00 0.00 0.00 95 1016.4
20260506114032 63 0 0.0 0.0 0.00 0.00 0.00 95 1016.5
20260506113534 62 0 0.0 0.0 0.00 0.00 0.00 94 1016.5
20260506113050 62 0 0.0 0.0 0.00 0.00 0.00 94 1016.5
20260506112533 62 0 0.0 0.0 0.00 0.00 0.00 94 1016.5
20260506112033 62 0 0.0 0.0 0.00 0.00 0.00 94 1016.5
20260506111541 62 0 0.0 0.0 0.00 0.00 0.00 94 1016.4
20260506111033 62 0 0.0 0.0 0.00 0.00 0.00 94 1016.4
20260506110534 62 0 0.0 0.0 0.00 0.00 0.00 94 1016.4
20260506110047 61 0 0.0 0.0 0.00 0.00 0.00 94 1016.2
20260506105534 61 0 0.0 0.0 0.00 0.00 0.00 94 1016.2
20260506105034 61 0 0.0 0.0 0.00 0.00 0.00 94 1016.2
20260506104553 61 0 0.0 0.0 0.00 0.00 0.00 94 1016.2
20260506104032 61 0 0.0 0.0 0.00 0.00 0.00 93 1016.1
20260506103533 61 0 0.0 0.0 0.00 0.00 0.00 93 1016.1
20260506103043 60 0 0.0 0.0 0.00 0.00 0.00 93 1016.1
20260506102533 60 0 0.0 0.0 0.00 0.00 0.00 93 1016.0
20260506102034 60 0 0.0 0.0 0.00 0.00 0.00 93 1016.1
20260506101542 60 0 0.0 0.0 0.00 0.00 0.00 93 1016.2
20260506101032 60 0 0.0 0.0 0.00 0.00 0.00 93 1016.0
20260506100533 60 0 0.0 0.0 0.00 0.00 0.00 93 1016.0
20260506100050 60 0 0.0 0.0 0.00 0.00 0.00 92 1016.0
20260506095534 60 0 0.0 0.0 0.00 0.00 0.00 92 1016.0
20260506095032 60 0 0.0 0.0 0.00 0.00 0.00 92 1016.1
20260506094536 60 0 0.0 0.0 0.00 0.00 0.00 92 1016.2
20260506094031 60 0 0.0 0.0 0.00 0.00 0.00 92 1016.2